SCP
0 0 0 1 1 0 0 0 0 0 0 0 0 0 0 0 0 0 0 0 0 0 0 0 0 0 0 0 0 0 0 0 0 0 0 0 0 0 0 0 0 0 0
0 0 1 1 1 1 0 0 0 0 0 0 0 0 0 0 0 0 0 0 0 0 0 0 0 0 0 0 0 0 0 0 0 0 0 0 0 0 0 0 0 0 0
0 1 1 1 1 1 1 0 0 0 0 0 0 0 0 0 0 0 0 0 0 0 0 0 0 0 0 0 0 0 0 0 0 0 0 0 0 0 0 0 0 0 0
1 1 1 1 1 1 1 0 0 0 0 0 0 0 0 0 0 0 0 0 0 0 0 0 0 0 0 0 0 0 0 0 0 0 0 0 0 0 0 0 0 0 0
1 1 1 1 1 1 1 1 1 0 0 0 0 0 0 0 0 0 0 0 0 0 0 0 0 0 0 0 0 0 0 0 0 0 0 0 0 0 0 0 0 0 0
1 1 1 1 1 1 1 1 1 1 1 0 0 0 0 0 0 0 0 0 0 0 0 0 0 0 0 0 0 0 0 0 0 0 0 0 0 0 0 0 0 0 0
1 1 1 1 1 1 1 1 1 1 1 1 0 0 0 0 0 0 0 0 0 0 0 0 0 0 0 0 0 0 0 0 0 0 0 0 0 0 0 0 0 0 0
1 1 1 1 1 1 1 1 1 1 1 1 1 1 0 0 0 0 0 0 0 0 0 0 0 0 0 0 0 0 0 0 0 0 0 0 0 0 0 0 0 0 0
1 1 1 1 1 1 1 1 1 1 1 1 1 1 1 0 0 0 0 0 0 0 0 0 0 0 0 0 0 0 0 0 0 0 0 0 0 0 0 0 0 0 0
1 1 1 1 1 1 1 1 1 1 1 1 1 1 1 0 0 0 0 0 0 0 0 0 0 0 0 0 0 0 0 0 0 0 0 0 0 0 0 0 0 0 0
1 1 1 1 1 1 1 2 1 1 1 1 1 1 1 1 0 0 0 0 0 0 0 0 0 0 0 0 0 0 0 0 0 0 0 0 0 0 0 0 0 0 0
1 1 1 1 1 1 2 2 1 1 1 1 1 1 1 1 0 0 0 0 0 0 0 0 0 0 0 0 0 0 0 0 0 0 0 0 0 0 0 0 0 0 0
1 1 1 1 1 1 1 1 1 1 1 1 1 1 1 1 1 0 0 0 0 0 0 0 0 0 0 0 0 0 0 0 0 0 0 0 0 0 0 0 0 0 0
1 2 2 1 1 1 1 1 1 1 1 1 1 1 1 1 1 1 1 1 0 0 0 0 0 0 0 0 0 0 0 0 0 0 0 0 0 0 0 0 0 0 0
2 2 2 2 2 1 1 1 1 1 1 1 1 1 1 1 1 1 1 1 1 0 0 0 0 0 0 0 0 0 0 0 0 0 0 0 0 0 0 0 0 0 0
2 2 2 2 2 1 1 1 1 1 1 1 1 1 1 1 1 1 1 1 1 1 1 0 0 0 0 0 0 0 0 0 0 0 0 0 0 0 0 0 0 0 0
2 2 2 1 1 1 1 1 1 1 1 1 1 1 1 1 1 1 1 1 1 1 1 0 0 0 0 0 0 0 0 0 0 0 0 0 0 0 0 0 0 0 0
1 1 1 1 1 1 1 1 1 1 1 1 1 1 1 1 1 1 1 1 1 1 0 0 0 0 0 0 0 0 0 0 0 0 0 0 0 0 0 0 0 0 0
1 1 1 1 1 1 1 1 1 1 1 1 1 1 1 1 1 1 1 0 0 0 0 0 0 0 0 0 0 0 0 0 0 0 0 0 0 0 0 0 0 0 0
2 1 1 1 1 1 1 1 1 1 1 1 1 1 1 1 1 1 0 0 0 0 0 0 0 0 0 0 0 0 0 0 0 0 0 0 0 0 0 0 0 0 0
2 2 1 1 1 1 1 1 1 1 1 1 1 1 1 1 1 0 0 0 0 0 0 0 0 0 0 0 0 0 0 0 0 0 0 0 0 0 0 0 0 0 0
2 2 2 1 1 1 1 1 1 1 1 1 1 1 1 1 0 0 0 0 0 0 0 0 0 0 0 0 0 0 0 0 0 0 0 0 0 0 0 0 0 0 0
2 2 1 1 1 1 1 1 1 1 1 1 1 1 1 0 0 0 0 0 0 0 0 0 0 0 0 0 0 0 0 0 0 0 0 0 0 0 0 0 0 0 0
1 1 1 1 1 1 1 1 1 1 1 1 1 0 0 0 0 0 0 0 0 0 0 0 0 0 0 0 0 0 0 0 0 0 0 0 0 0 0 0 0 0 0
1 1 1 1 1 1 1 1 1 1 1 1 1 0 0 0 0 0 0 0 0 0 0 0 0 0 0 0 0 0 0 0 0 0 0 0 0 0 0 0 0 0 0
1 1 1 1 1 1 1 1 1 1 1 1 1 0 0 0 0 0 0 0 0 0 0 0 0 0 0 0 0 0 0 0 0 0 0 0 0 0 0 0 0 0 0
Wind_Speed
10 11 11 12 11 9 9 8 8 6 4 2 2 2 2 1 1 2 3 3 3 3 2 1 1 1 1 1 1 0 0 0 0 1 2 2 2 1 2 3 3 4 5
10 11 11 12 12 11 9 9 8 7 6 4 3 2 2 2 2 2 2 3 3 3 3 2 2 2 1 0 0 1 0 1 0 1 1 3 4 3 1 1 3 3 2
16 14 12 12 12 12 11 10 9 8 7 5 3 2 1 1 1 0 1 3 3 3 3 3 3 2 2 1 1 1 2 1 1 1 3 2 2 3 3 1 1 2 2
13 13 12 12 14 13 11 9 9 8 7 6 4 4 3 3 3 2 2 2 3 3 3 3 3 2 2 1 2 1 1 2 1 1 1 2 3 2 2 3 1 1 2
14 14 14 14 13 12 11 10 9 8 7 6 6 5 3 3 2 2 2 3 2 2 3 3 2 2 2 2 1 1 1 1 1 1 1 0 0 1 2 2 2 2 2
14 14 12 10 10 10 10 10 9 8 8 7 6 6 5 4 3 2 3 2 2 2 2 2 2 2 2 2 2 1 1 1 1 1 1 1 1 1 2 2 2 2 2
14 13 13 12 12 12 11 10 11 9 9 8 7 6 6 6 5 4 4 3 2 2 3 2 2 2 2 2 2 1 1 1 1 1 1 1 2 2 2 2 2 2 2
12 14 15 15 14 14 12 11 11 10 9 8 7 6 6 4 4 4 4 4 3 3 3 3 4 4 3 3 2 1 2 1 1 2 2 1 2 1 2 2 2 1 2
11 13 13 13 14 14 13 13 12 10 9 9 7 6 5 5 5 4 3 3 3 2 3 3 3 3 3 3 2 1 2 1 1 1 2 1 2 1 1 1 2 2 1
8 10 11 12 12 12 12 11 11 11 10 9 8 7 6 5 4 3 4 3 3 2 2 3 3 3 2 2 2 1 1 1 1 1 1 1 1 1 1 1 1 2 3
8 9 9 10 10 9 10 10 11 10 9 8 7 6 5 5 4 4 4 3 3 2 2 3 3 3 3 2 2 2 1 1 0 1 1 1 1 1 1 0 1 1 2
6 7 7 8 8 9 9 9 9 9 9 8 6 6 4 4 4 4 4 3 2 2 2 2 2 2 2 2 2 1 1 1 1 0 1 1 1 1 1 1 1 1 1
6 6 7 7 8 8 8 8 8 8 8 7 6 5 5 5 5 4 3 3 2 2 1 2 2 2 1 1 2 2 1 1 1 1 1 0 1 1 1 1 1 1 1
7 7 6 6 7 8 8 8 8 8 8 7 7 6 6 5 5 4 3 3 2 2 2 2 2 2 1 1 1 1 1 0 0 1 1 1 1 1 0 1 1 1 2
7 7 6 6 6 7 7 7 7 6 7 7 6 5 5 4 4 4 3 2 2 3 3 2 2 1 1 1 1 1 1 1 0 0 1 1 2 3 2 2 1 2 2
7 6 6 6 6 7 7 7 7 6 6 6 5 4 4 4 4 3 3 3 2 1 2 2 2 1 1 0 2 2 1 1 1 1 1 1 2 3 4 4 4 4 3
8 7 6 6 6 6 7 8 7 6 6 6 5 5 5 4 3 4 4 3 2 2 2 1 2 2 1 1 2 4 3 2 2 2 1 1 3 3 2 4 5 5 4
8 6 5 4 4 5 6 7 7 7 7 6 5 5 5 4 3 4 4 3 3 3 2 2 2 2 3 3 3 4 3 3 2 2 2 2 2 2 3 4 4 3 3
8 6 6 5 5 6 7 8 7 7 6 6 5 5 5 5 4 4 4 3 3 3 3 3 3 3 3 4 4 5 3 3 3 3 3 3 2 3 5 4 4 3 3
7 6 5 6 6 6 7 8 7 7 6 5 5 5 5 5 5 4 4 4 4 4 3 3 3 3 3 4 5 5 3 3 2 3 3 4 3 4 5 3 3 3 2
7 7 7 6 5 6 8 8 7 6 5 5 5 5 5 5 5 5 4 4 5 5 4 4 3 4 4 5 6 4 3 3 3 2 2 2 5 6 6 4 3 2 1
8 8 7 6 5 5 8 7 6 5 6 6 6 5 5 5 5 5 5 5 5 5 4 4 4 3 4 5 5 6 5 4 4 2 1 2 5 7 7 5 4 5 4
7 6 7 6 5 5 6 7 5 6 7 7 7 6 5 5 5 5 5 4 4 4 3 3 3 3 3 4 7 8 8 6 4 3 4 5 6 6 6 7 7 5 4
6 6 7 7 5 4 5 5 5 6 8 7 6 5 6 5 5 5 4 4 3 4 4 3 3 2 2 3 3 3 4 5 5 4 5 6 7 6 5 5 5 3 3
5 5 6 6 5 4 4 5 5 7 8 7 6 6 5 6 6 6 5 3 2 2 4 3 3 3 2 1 2 2 2 2 2 3 3 4 4 4 4 4 3 3 3
5 5 6 5 4 4 4 4 5 7 8 7 6 5 5 5 5 6 6 10 7 7 7 5 5 3 4 4 6 6 6 5 6 5 4 3 3 3 3 3 3 3 2
Wind_Direction
181 174 168 164 161 160 160 161 160 169 159 147 143 137 162 175 175 191 193 185 183 175 162 174 191 179 174 217 220 147 61 330 67 45 352 337 315 245 211 202 199 208 211
175 177 172 168 168 169 168 165 167 170 171 169 164 162 166 183 184 195 198 197 188 186 182 178 185 189 186 251 263 133 124 310 98 125 58 350 346 339 267 209 203 208 200
181 180 176 175 172 174 174 173 174 173 173 167 146 129 93 57 81 191 215 220 203 195 189 184 185 190 179 205 233 194 172 211 301 143 147 151 249 305 321 293 226 214 203
182 179 175 175 180 180 176 171 173 173 174 165 158 158 166 183 207 202 206 225 214 206 200 191 190 189 187 205 232 191 177 165 238 287 198 183 177 181 308 322 322 277 229
180 181 183 181 181 182 178 174 172 175 174 170 169 169 181 197 206 196 203 217 229 220 207 195 188 190 194 205 219 182 165 162 178 210 241 270 215 179 183 276 307 315 277
184 186 183 175 176 179 180 176 173 179 177 174 175 178 185 190 189 199 204 216 227 235 223 202 191 192 200 210 216 201 202 198 176 187 176 174 195 216 191 227 258 274 286
183 184 178 178 179 180 183 179 176 181 183 182 184 185 187 186 192 198 202 206 213 227 231 208 194 197 206 217 211 196 237 229 208 218 221 209 215 208 194 196 248 265 288
182 183 184 183 184 183 183 179 180 181 181 184 188 189 189 191 196 196 195 204 211 221 217 199 193 199 199 208 198 197 228 236 237 254 245 238 246 217 207 201 196 276 310
181 180 181 182 183 182 183 181 179 178 180 184 184 187 188 192 198 198 197 209 219 219 212 206 198 199 196 205 198 196 226 225 237 268 269 265 274 251 233 211 184 176 234
182 179 178 181 183 182 178 176 176 179 179 180 185 188 193 197 193 184 197 205 216 216 201 201 197 194 194 195 193 203 226 200 258 259 288 297 294 303 301 236 189 163 173
174 173 176 179 177 168 165 169 172 172 175 179 180 182 190 192 185 187 199 203 209 203 198 198 192 197 205 201 191 205 200 182 279 329 321 309 318 338 343 14 76 97 127
150 151 155 155 157 161 163 168 170 170 174 173 172 182 182 178 182 194 203 196 194 198 194 187 184 187 196 183 172 190 170 157 165 293 21 338 4 359 351 29 53 72 119
126 125 130 142 153 158 161 164 166 167 167 165 167 175 177 180 188 191 192 183 172 160 148 137 150 156 154 136 142 164 173 173 182 163 134 38 60 15 5 36 45 50 69
129 130 130 142 154 158 161 165 167 164 162 162 165 174 183 182 179 174 171 170 160 154 150 137 137 136 130 126 132 143 151 153 224 199 166 133 135 167 118 73 70 90 77
119 128 133 142 149 150 155 163 159 157 158 159 167 175 170 160 150 147 151 150 151 157 157 145 131 134 131 127 154 176 163 164 204 351 47 76 83 79 85 91 92 97 92
124 127 131 137 145 149 155 156 153 153 152 156 161 151 143 143 145 145 141 131 121 124 130 130 125 111 106 84 160 161 156 140 147 113 78 75 62 58 63 73 82 98 116
135 137 141 145 150 154 154 157 159 147 143 147 144 143 143 143 147 142 125 124 122 112 96 105 119 119 74 57 110 138 139 131 131 121 100 70 58 64 73 64 57 52 58
138 140 139 136 139 139 136 136 133 134 139 141 141 141 140 140 133 123 127 134 124 121 113 93 85 82 51 56 105 124 124 108 105 102 108 102 55 56 86 84 64 45 27
140 141 136 130 124 126 130 124 124 129 132 135 136 137 137 130 121 119 123 119 109 100 93 89 86 73 36 45 100 122 111 95 83 77 77 91 85 67 90 95 82 54 24
121 123 118 111 113 118 123 121 123 125 130 135 133 127 125 125 128 128 119 110 108 106 98 83 71 69 45 41 78 110 111 105 88 63 53 55 72 72 80 95 94 79 29
110 113 110 107 114 123 119 120 122 127 131 121 115 112 114 120 121 112 109 111 106 98 93 85 63 54 49 47 57 86 117 125 108 86 60 45 60 69 65 78 93 105 89
103 105 104 100 98 108 118 119 123 125 117 110 104 102 102 110 109 109 105 105 108 104 97 88 69 44 40 48 52 63 78 100 109 100 77 70 67 63 57 65 69 70 72
105 104 106 102 95 105 121 124 129 123 116 108 103 99 91 83 91 99 101 100 101 105 101 94 86 54 35 41 49 54 61 70 86 86 81 75 70 65 58 55 54 56 66
112 110 111 110 103 103 107 120 124 121 116 113 107 101 95 85 74 73 78 92 99 111 114 111 104 84 48 30 28 39 49 57 65 68 64 59 59 60 57 48 41 43 57
114 116 120 120 117 113 109 115 118 119 118 116 112 104 98 97 85 73 60 73 70 120 137 135 132 123 101 23 48 78 62 68 91 85 66 57 52 48 46 43 39 38 40
118 115 114 116 116 108 106 117 120 123 125 124 122 118 114 107 106 104 79 49 59 69 84 107 118 99 112 113 91 82 78 77 94 90 78 65 62 63 56 50 36 33 32